Litchfield, MN

4:34 AM CST on December 13, 2019 (GMT -0600)
Litchfield Municipal

Weather History for KLJF - September, 2019

Change the Weather History Date:

Monday, September 16, 2019

  Actual Average Record
Temperature  
Mean Temperature 76 °F -  
Max Temperature 87 °F 71 °F 92 °F (1948)
Min Temperature 64 °F 47 °F 27 °F (1984)
Cooling Degree Days 10    
Growing Degree Days 26 (Base 50)    
Moisture  
Dew Point 70 °F    
Average Humidity 83    
Maximum Humidity 100    
Minimum Humidity 62    
Precipitation  
Precipitation 0.00 in - - ()
Sea Level Pressure  
Sea Level Pressure 29.98 in    
Wind  
Wind Speed 4 mph ()    
Max Wind Speed 12 mph    
Max Gust Speed 18 mph    
Visibility 10.0 miles    
Events      
Averages and records for this station are not official NWS values.
T = Trace of Precipitation, MM = Missing Value Source: Averaged Metar Reports

Daily Weather History Graph

Daily Weather History Graph

Search for Another Location

Airport or City:

Astronomy

Sep. 16, 2019 Rise Set
Actual Time 6:57 AM CDT 7:27 PM CDT
Civil Twilight 6:28 AM CDT 7:56 PM CDT
Nautical Twilight 5:53 AM CDT 8:31 PM CDT
Astronomical Twilight 5:16 AM CDT 9:07 PM CDT
Moon 8:57 PM CDT (9/16) 9:09 AM CDT (9/16)
Length of Visible Light 13h 28m
Length of Day
12h 29m
Waning Gibbous, 94% of the Moon is Illuminated
Sep 16
Waning Gibbous
Sep 21
Last Quarter
Sep 28
New
Oct 5
First Quarter
Oct 13
Full

Hourly Weather History & Observations

Time (CDT) Temp. Heat Index Dew Point Humidity Pressure Visibility Wind Dir Wind Speed Gust Speed Precip Events Conditions
12:16 AM 68.0 °F - 66.2 °F 94% 30.00 in 10.0 mi Calm Calm - N/A   Clear
12:35 AM 66.2 °F - 64.4 °F 94% 30.01 in 10.0 mi Calm Calm - N/A   Clear
12:36 AM 66.2 °F - 64.4 °F 94% 30.01 in 10.0 mi Calm Calm - N/A   Clear
12:55 AM 66.2 °F - 64.4 °F 94% 30.00 in 10.0 mi Calm Calm - N/A   Clear
12:59 AM 66.2 °F - 64.4 °F 94% 30.01 in 10.0 mi Calm Calm - N/A   Clear
1:17 AM 66.2 °F - 64.4 °F 94% 30.01 in 10.0 mi Calm Calm - N/A   Clear
1:36 AM 64.4 °F - 62.6 °F 94% 30.02 in 10.0 mi Calm Calm - N/A   Clear
1:55 AM 66.2 °F - 64.4 °F 94% 30.01 in 10.0 mi Calm Calm - N/A   Clear
1:56 AM 66.2 °F - 64.4 °F 94% 30.01 in 10.0 mi Calm Calm - N/A   Clear
2:15 AM 66.2 °F - 64.4 °F 94% 30.01 in 10.0 mi Calm Calm - N/A   Clear
2:37 AM 66.2 °F - 64.4 °F 94% 30.01 in 10.0 mi SSE 3.5 mph - N/A   Clear
2:56 AM 66.2 °F - 64.4 °F 94% 30.01 in 10.0 mi Calm Calm - N/A   Clear
3:15 AM 66.2 °F - 64.4 °F 94% 30.01 in 10.0 mi SSE 3.5 mph - N/A   Clear
3:16 AM 66.2 °F - 64.4 °F 94% 30.01 in 10.0 mi SSE 3.5 mph - N/A   Clear
3:35 AM 66.2 °F - 64.4 °F 94% 30.01 in 10.0 mi SSE 3.5 mph - N/A   Clear
3:36 AM 66.2 °F - 64.4 °F 94% 30.01 in 10.0 mi SSE 3.5 mph - N/A   Clear
3:58 AM 66.2 °F - 64.4 °F 94% 30.01 in 10.0 mi SSE 3.5 mph - N/A   Clear
4:17 AM 66.2 °F - 62.6 °F 88% 30.01 in 10.0 mi SSE 3.5 mph - N/A   Clear
4:36 AM 66.2 °F - 62.6 °F 88% 30.02 in 10.0 mi SSE 4.6 mph - N/A   Clear
4:55 AM 66.2 °F - 62.6 °F 88% 30.02 in 10.0 mi SSE 3.5 mph - N/A   Clear
4:56 AM 66.2 °F - 62.6 °F 88% 30.02 in 10.0 mi SSE 4.6 mph - N/A   Clear
5:15 AM 64.4 °F - 62.6 °F 94% 30.01 in 10.0 mi SSE 5.8 mph - N/A   Clear
5:20 AM 64.4 °F - 62.6 °F 94% 30.01 in 10.0 mi SSE 5.8 mph - N/A   Clear
5:37 AM 64.4 °F - 62.6 °F 94% 30.01 in 10.0 mi SSE 3.5 mph - N/A   Clear
5:55 AM 64.4 °F - 62.6 °F 94% 30.01 in 10.0 mi SSE 4.6 mph - N/A   Clear
6:15 AM 64.4 °F - 64.4 °F 100% 30.02 in 10.0 mi SSE 3.5 mph - N/A   Clear
6:16 AM 64.4 °F - 64.4 °F 100% 30.02 in 10.0 mi SSE 3.5 mph - N/A   Clear
6:35 AM 64.4 °F - 62.6 °F 94% 30.01 in 10.0 mi SSE 5.8 mph - N/A   Clear
6:59 AM 64.4 °F - 62.6 °F 94% 30.01 in 10.0 mi SSE 5.8 mph - N/A   Clear
7:17 AM 66.2 °F - 62.6 °F 88% 30.02 in 10.0 mi SSE 4.6 mph - N/A   Clear
7:36 AM 66.2 °F - 62.6 °F 88% 30.02 in 10.0 mi SSE 5.8 mph - N/A   Clear
7:55 AM 68.0 °F - 64.4 °F 88% 30.02 in 10.0 mi SSE 5.8 mph - N/A   Clear
7:56 AM 68.0 °F - 64.4 °F 88% 30.02 in 10.0 mi SSE 5.8 mph - N/A   Clear
8:15 AM 69.8 °F - 66.2 °F 88% 30.02 in 10.0 mi SSE 6.9 mph - N/A   Clear
8:19 AM 69.8 °F - 66.2 °F 88% 30.02 in 10.0 mi SSE 8.1 mph - N/A   Clear
8:37 AM 71.6 °F - 66.2 °F 83% 30.01 in 10.0 mi SSE 5.8 mph - N/A   Clear
8:56 AM 73.4 °F - 68.0 °F 83% 30.01 in 10.0 mi SSE 6.9 mph - N/A   Clear
9:15 AM 73.4 °F - 69.8 °F 88% 30.01 in 10.0 mi SSE 8.1 mph - N/A   Clear
9:16 AM 73.4 °F - 69.8 °F 88% 30.01 in 10.0 mi SSE 5.8 mph - N/A   Clear
9:35 AM 73.4 °F - 69.8 °F 88% 30.01 in 10.0 mi SSE 6.9 mph - N/A   Clear
9:36 AM 73.4 °F - 69.8 °F 88% 30.01 in 10.0 mi SSE 6.9 mph - N/A   Clear
9:59 AM 75.2 °F - 69.8 °F 83% 30.01 in 10.0 mi SSE 8.1 mph - N/A   Clear
10:17 AM 77.0 °F - 69.8 °F 78% 30.00 in 10.0 mi SSE 8.1 mph - N/A   Clear
10:36 AM 78.8 °F - 69.8 °F 74% 30.00 in 10.0 mi SSE 6.9 mph - N/A   Clear
10:55 AM 80.6 °F 84.6 °F 71.6 °F 74% 29.99 in 10.0 mi SSE 5.8 mph - N/A   Clear
10:56 AM 80.6 °F 84.6 °F 71.6 °F 74% 29.99 in 10.0 mi SSE 6.9 mph - N/A   Clear
11:15 AM 80.6 °F 83.9 °F 69.8 °F 70% 29.99 in 10.0 mi SSE 6.9 mph - N/A   Clear
11:19 AM 80.6 °F 83.9 °F 69.8 °F 70% 29.99 in 10.0 mi SE 6.9 mph - N/A   Clear
11:38 AM 82.4 °F 87.2 °F 71.6 °F 70% 29.99 in 10.0 mi SSE 6.9 mph - N/A   Clear
11:56 AM 82.4 °F 87.2 °F 71.6 °F 70% 29.98 in 10.0 mi SSE 8.1 mph - N/A   Clear
12:15 PM 84.2 °F 89.6 °F 71.6 °F 66% 29.98 in 10.0 mi SSE 9.2 mph - N/A   Clear
12:16 PM 84.2 °F 89.6 °F 71.6 °F 66% 29.98 in 10.0 mi SSE 9.2 mph - N/A   Clear
12:35 PM 84.2 °F 89.6 °F 71.6 °F 66% 29.98 in 10.0 mi SSE 6.9 mph - N/A   Clear
12:36 PM 84.2 °F 89.6 °F 71.6 °F 66% 29.98 in 10.0 mi SSE 5.8 mph - N/A   Clear
12:58 PM 84.2 °F 90.9 °F 73.4 °F 70% 29.97 in 10.0 mi SSE 6.9 mph 16.1 mph N/A   Clear
1:17 PM 84.2 °F 90.9 °F 73.4 °F 70% 29.97 in 10.0 mi SSE 8.1 mph - N/A   Clear
1:36 PM 84.2 °F 90.9 °F 73.4 °F 70% 29.96 in 10.0 mi SE 8.1 mph - N/A   Clear
1:55 PM 84.2 °F 90.9 °F 73.4 °F 70% 29.96 in 10.0 mi SE 9.2 mph - N/A   Clear
1:56 PM 84.2 °F 90.9 °F 73.4 °F 70% 29.96 in 10.0 mi SSE 9.2 mph - N/A   Clear
2:15 PM 86.0 °F 93.4 °F 73.4 °F 66% 29.95 in 10.0 mi SSE 11.5 mph - N/A   Clear
2:19 PM 86.0 °F 93.4 °F 73.4 °F 66% 29.95 in 10.0 mi SE 11.5 mph 16.1 mph N/A   Clear
2:37 PM 86.0 °F 93.4 °F 73.4 °F 66% 29.95 in 10.0 mi SSE 9.2 mph 16.1 mph N/A   Clear
2:55 PM 84.2 °F 90.9 °F 73.4 °F 70% 29.95 in 10.0 mi SSE 10.4 mph 16.1 mph N/A   Clear
3:15 PM 84.2 °F 90.9 °F 73.4 °F 70% 29.95 in 10.0 mi SE 5.8 mph - N/A   Clear
3:35 PM 84.2 °F 90.9 °F 73.4 °F 70% 29.95 in 10.0 mi SE 6.9 mph - N/A   Clear
3:36 PM 84.2 °F 90.9 °F 73.4 °F 70% 29.95 in 10.0 mi SE 6.9 mph - N/A   Clear
3:58 PM 87.8 °F 97.6 °F 75.2 °F 66% 29.95 in 10.0 mi SSE 8.1 mph - N/A   Clear
4:17 PM 87.8 °F 95.6 °F 73.4 °F 62% 29.94 in 10.0 mi SE 6.9 mph 17.3 mph N/A   Clear
4:36 PM 87.8 °F 97.6 °F 75.2 °F 66% 29.94 in 10.0 mi SSE 8.1 mph - N/A   Clear
4:55 PM 87.8 °F 97.6 °F 75.2 °F 66% 29.94 in 10.0 mi SSE 9.2 mph - N/A   Clear
4:56 PM 87.8 °F 97.6 °F 75.2 °F 66% 29.94 in 10.0 mi SSE 8.1 mph - N/A   Clear
5:15 PM 87.8 °F 97.6 °F 75.2 °F 66% 29.94 in 10.0 mi SSE 9.2 mph - N/A   Clear
5:19 PM 87.8 °F 97.6 °F 75.2 °F 66% 29.94 in 10.0 mi SE 11.5 mph - N/A   Clear
5:38 PM 84.2 °F 92.3 °F 75.2 °F 74% 29.94 in 10.0 mi SE 8.1 mph 18.4 mph N/A   Clear
5:55 PM 84.2 °F 92.3 °F 75.2 °F 74% 29.94 in 10.0 mi SE 6.9 mph - N/A   Clear
6:15 PM 82.4 °F 89.5 °F 75.2 °F 79% 29.94 in 10.0 mi SE 6.9 mph - N/A   Clear
6:16 PM 82.4 °F 89.5 °F 75.2 °F 79% 29.94 in 10.0 mi SSE 5.8 mph - N/A   Clear
6:35 PM 82.4 °F 89.5 °F 75.2 °F 79% 29.94 in 10.0 mi SSE 6.9 mph - N/A   Clear
6:36 PM 82.4 °F 89.5 °F 75.2 °F 79% 29.94 in 10.0 mi SE 8.1 mph - N/A   Clear
6:59 PM 80.6 °F 86.2 °F 75.2 °F 84% 29.95 in 10.0 mi SSE 6.9 mph - N/A   Clear
7:17 PM 80.6 °F 86.2 °F 75.2 °F 84% 29.94 in 10.0 mi SSE 6.9 mph - N/A   Clear
7:36 PM 78.8 °F - 75.2 °F 89% 29.94 in 10.0 mi SE 6.9 mph - N/A   Clear
7:55 PM 78.8 °F - 75.2 °F 89% 29.94 in 10.0 mi SE 6.9 mph - N/A   Clear
7:56 PM 78.8 °F - 75.2 °F 89% 29.94 in 10.0 mi SE 6.9 mph - N/A   Clear
8:15 PM 78.8 °F - 75.2 °F 89% 29.95 in 10.0 mi SE 6.9 mph - N/A   Clear
8:19 PM 78.8 °F - 75.2 °F 89% 29.95 in 10.0 mi SE 4.6 mph - N/A   Clear
8:37 PM 78.8 °F - 75.2 °F 89% 29.95 in 10.0 mi SSE 4.6 mph - N/A   Clear
8:56 PM 78.8 °F - 75.2 °F 89% 29.95 in 10.0 mi SSE 5.8 mph - N/A   Clear
9:15 PM 78.8 °F - 75.2 °F 89% 29.95 in 10.0 mi SSE 5.8 mph - N/A   Clear
9:35 PM 78.8 °F - 75.2 °F 89% 29.95 in 10.0 mi SSE 5.8 mph - N/A   Clear
9:59 PM 78.8 °F - 75.2 °F 89% 29.95 in 10.0 mi SSE 6.9 mph - N/A   Clear
10:16 PM 78.8 °F - 75.2 °F 89% 29.96 in 10.0 mi SSE 5.8 mph - N/A   Clear
10:36 PM 77.0 °F - 75.2 °F 94% 29.96 in 10.0 mi SSE 6.9 mph - N/A   Clear
10:55 PM 77.0 °F - 75.2 °F 94% 29.96 in 10.0 mi SSE 4.6 mph - N/A   Clear
10:56 PM 77.0 °F - 75.2 °F 94% 29.96 in 10.0 mi SSE 4.6 mph - N/A   Clear
11:15 PM 77.0 °F - 75.2 °F 94% 29.96 in 10.0 mi SSE 6.9 mph - N/A   Clear
11:38 PM 77.0 °F - 75.2 °F 94% 29.96 in 10.0 mi SSE 6.9 mph - N/A   Clear
11:56 PM 77.0 °F - 75.2 °F 94% 29.96 in 10.0 mi SSE 6.9 mph - N/A   Clear